TimeCST,TemperatureF,Dew PointF,Humidity,Sea Level PressureIn,VisibilityMPH,Wind Direction,Wind SpeedMPH,Gust SpeedMPH,PrecipitationIn,Events,Conditions,WindDirDegrees,DateUTC
12:15 AM,19.4,10.4,68,29.83,10.0,SSE,4.6,-,N/A,,Overcast,160,2013-02-18 06:15:00
12:35 AM,19.4,10.4,68,29.83,10.0,SSE,6.9,-,N/A,,Scattered Clouds,160,2013-02-18 06:35:00
12:55 AM,19.4,10.4,68,29.82,10.0,SSE,6.9,-,N/A,,Scattered Clouds,150,2013-02-18 06:55:00
1:15 AM,19.4,10.4,68,29.80,10.0,SSE,9.2,-,N/A,,Mostly Cloudy,150,2013-02-18 07:15:00
1:35 AM,19.4,10.4,68,29.78,10.0,SE,10.4,-,N/A,,Scattered Clouds,140,2013-02-18 07:35:00
1:55 AM,19.4,10.4,68,29.76,10.0,SE,8.1,-,N/A,,Clear,140,2013-02-18 07:55:00
2:15 AM,19.4,10.4,68,29.75,10.0,SSE,9.2,-,N/A,,Clear,150,2013-02-18 08:15:00
2:35 AM,21.2,12.2,68,29.75,10.0,SSE,8.1,-,N/A,,Scattered Clouds,150,2013-02-18 08:35:00
2:55 AM,21.2,12.2,68,29.73,10.0,SE,9.2,-,N/A,,Overcast,140,2013-02-18 08:55:00
3:15 AM,21.2,12.2,68,29.71,10.0,SE,11.5,-,N/A,,Overcast,130,2013-02-18 09:15:00
3:35 AM,21.2,12.2,68,29.71,10.0,SE,9.2,-,N/A,,Overcast,140,2013-02-18 09:35:00
3:55 AM,21.2,12.2,68,29.70,10.0,SSE,9.2,-,N/A,,Scattered Clouds,150,2013-02-18 09:55:00
4:15 AM,21.2,14.0,74,29.69,10.0,SE,6.9,-,N/A,,Clear,140,2013-02-18 10:15:00
4:35 AM,21.2,14.0,74,29.68,10.0,SE,8.1,-,N/A,,Clear,140,2013-02-18 10:35:00
4:55 AM,21.2,14.0,74,29.68,10.0,SE,6.9,-,N/A,,Clear,130,2013-02-18 10:55:00
5:15 AM,21.2,14.0,74,29.66,10.0,SE,8.1,-,N/A,,Clear,140,2013-02-18 11:15:00
5:35 AM,21.2,14.0,74,29.66,10.0,SE,6.9,-,N/A,,Clear,130,2013-02-18 11:35:00
5:55 AM,21.2,14.0,74,29.65,10.0,SE,9.2,-,N/A,,Clear,130,2013-02-18 11:55:00
6:15 AM,21.2,14.0,74,29.65,10.0,SE,4.6,-,N/A,,Clear,130,2013-02-18 12:15:00
7:15 AM,21.2,15.8,80,29.61,10.0,SE,6.9,-,N/A,,Clear,130,2013-02-18 13:15:00
7:35 AM,23.0,15.8,74,29.62,10.0,SE,6.9,-,N/A,,Clear,140,2013-02-18 13:35:00
7:55 AM,23.0,17.6,80,29.61,10.0,SE,6.9,-,N/A,,Clear,140,2013-02-18 13:55:00
8:35 AM,24.8,17.6,74,29.60,10.0,SE,8.1,-,N/A,,Clear,140,2013-02-18 14:35:00
8:55 AM,24.8,17.6,74,29.60,10.0,SSE,5.8,-,N/A,,Clear,150,2013-02-18 14:55:00
9:15 AM,26.6,17.6,69,29.59,10.0,SSE,6.9,-,N/A,,Clear,150,2013-02-18 15:15:00
9:35 AM,28.4,19.4,69,29.58,10.0,SSE,5.8,-,N/A,,Clear,150,2013-02-18 15:35:00
9:55 AM,28.4,19.4,69,29.57,10.0,SE,4.6,-,N/A,,Clear,130,2013-02-18 15:55:00
10:15 AM,28.4,19.4,69,29.56,10.0,SSE,5.8,-,N/A,,Clear,150,2013-02-18 16:15:00
10:35 AM,30.2,21.2,69,29.56,10.0,SSE,5.8,-,N/A,,Clear,160,2013-02-18 16:35:00
10:55 AM,32.0,21.2,64,29.56,10.0,SSW,8.1,-,N/A,,Clear,200,2013-02-18 16:55:00
11:15 AM,32.0,23.0,69,29.55,10.0,South,8.1,-,N/A,,Clear,170,2013-02-18 17:15:00
11:35 AM,32.0,23.0,69,29.53,10.0,SSW,5.8,-,N/A,,Clear,210,2013-02-18 17:35:00
11:55 AM,32.0,23.0,69,29.52,10.0,South,4.6,-,N/A,,Clear,170,2013-02-18 17:55:00
12:15 PM,33.8,23.0,65,29.52,10.0,SSW,6.9,-,N/A,,Scattered Clouds,200,2013-02-18 18:15:00
12:35 PM,33.8,24.8,70,29.51,10.0,South,6.9,-,N/A,,Mostly Cloudy,190,2013-02-18 18:35:00
12:55 PM,33.8,24.8,70,29.51,10.0,South,6.9,-,N/A,,Overcast,180,2013-02-18 18:55:00
1:15 PM,33.8,26.6,75,29.49,10.0,South,5.8,-,N/A,,Mostly Cloudy,190,2013-02-18 19:15:00
1:35 PM,33.8,26.6,75,29.49,10.0,SW,5.8,-,N/A,,Mostly Cloudy,220,2013-02-18 19:35:00
1:55 PM,33.8,26.6,75,29.48,10.0,WSW,5.8,-,N/A,,Mostly Cloudy,240,2013-02-18 19:55:00
2:15 PM,33.8,26.6,75,29.47,10.0,WSW,4.6,-,N/A,,Overcast,240,2013-02-18 20:15:00
2:35 PM,33.8,26.6,75,29.48,10.0,WSW,5.8,-,N/A,,Overcast,240,2013-02-18 20:35:00
2:55 PM,33.8,26.6,75,29.49,10.0,WSW,5.8,-,N/A,,Overcast,250,2013-02-18 20:55:00
3:35 PM,33.8,26.6,75,29.49,10.0,WSW,5.8,-,N/A,,Overcast,240,2013-02-18 21:35:00
3:55 PM,33.8,26.6,75,29.49,10.0,WSW,3.5,-,N/A,,Overcast,240,2013-02-18 21:55:00
4:15 PM,32.0,28.4,87,29.49,5.0,West,3.5,-,N/A,Snow,Light Snow,270,2013-02-18 22:15:00
4:35 PM,32.0,28.4,87,29.49,2.5,WNW,4.6,-,N/A,Snow,Light Snow,290,2013-02-18 22:35:00
5:15 PM,32.0,30.2,93,29.49,2.0,Calm,Calm,-,N/A,Snow,Light Snow,0,2013-02-18 23:15:00
5:35 PM,32.0,30.2,93,29.49,1.8,Calm,Calm,-,N/A,Snow,Light Snow,0,2013-02-18 23:35:00
5:55 PM,32.0,30.2,93,29.49,3.0,Calm,Calm,-,N/A,Snow,Light Snow,0,2013-02-18 23:55:00
6:15 PM,30.2,30.2,100,29.48,1.8,Calm,Calm,-,N/A,Snow,Light Snow,0,2013-02-19 00:15:00
6:55 PM,30.2,30.2,100,29.50,3.0,Calm,Calm,-,N/A,Snow,Light Snow,0,2013-02-19 00:55:00
7:15 PM,30.2,30.2,100,29.49,1.8,Calm,Calm,-,N/A,Snow,Light Snow,0,2013-02-19 01:15:00
7:35 PM,30.2,30.2,100,29.49,2.0,Calm,Calm,-,N/A,Snow,Light Snow,0,2013-02-19 01:35:00
7:55 PM,30.2,30.2,100,29.48,2.0,Calm,Calm,-,N/A,Snow,Light Snow,0,2013-02-19 01:55:00
8:15 PM,30.2,30.2,100,29.47,3.0,NW,4.6,-,N/A,Snow,Light Snow,320,2013-02-19 02:15:00
8:35 PM,30.2,28.4,93,29.46,4.0,NW,5.8,-,N/A,Snow,Light Snow,310,2013-02-19 02:35:00
8:55 PM,30.2,28.4,93,29.46,5.0,NW,3.5,-,N/A,Snow,Light Snow,310,2013-02-19 02:55:00
9:15 PM,30.2,28.4,93,29.46,5.0,NW,5.8,-,N/A,,Overcast,320,2013-02-19 03:15:00
9:35 PM,30.2,28.4,93,29.46,7.0,NW,6.9,-,N/A,,Overcast,320,2013-02-19 03:35:00
9:55 PM,30.2,28.4,93,29.45,7.0,NNW,5.8,-,N/A,,Overcast,330,2013-02-19 03:55:00
10:15 PM,30.2,28.4,93,29.45,7.0,NW,6.9,-,N/A,,Overcast,310,2013-02-19 04:15:00
10:35 PM,30.2,28.4,93,29.44,10.0,NNW,16.1,20.7,N/A,,Overcast,330,2013-02-19 04:35:00
10:55 PM,30.2,26.6,86,29.45,10.0,NNW,9.2,17.3,N/A,,Overcast,340,2013-02-19 04:55:00
11:15 PM,28.4,24.8,86,29.46,10.0,NW,11.5,18.4,N/A,,Overcast,320,2013-02-19 05:15:00
11:35 PM,28.4,24.8,86,29.46,10.0,NNW,11.5,16.1,N/A,,Overcast,330,2013-02-19 05:35:00
11:55 PM,28.4,23.0,80,29.46,10.0,NNW,12.7,19.6,N/A,,Overcast,330,2013-02-19 05:55:00